[[{"header":{"parameterUnit":"m.s-1","parameterCategory":1,"la1":30.2991,"la2":30.254,"lo1":-89.0895,"lo2":-89.0444,"dy":0.0017,"dx":0.0017,"nx":28,"ny":28,"refTime":"2023-10-28T09:00:00:Z","depth":0,"parameterNumber":2,"parameterNumberName":"U-component_of_WINDS"},"data":[0,0,0,0,0,0,0,0,0,0,0,0,0,0,0,0,0,0,0,0,0,0,0,0,0,0,0,0,0,0,0,0,0,0,0,0,0,0,0,0,0,0,0,0,0,0,0,0,0,0,0,0,0,0,0,0,0,0,-1.7061,-1.7061,0,-1.7044,-1.7044,-1.7044,-1.6971,-1.6969,-1.6968,-1.6966,-1.6953,-1.6954,-1.6955,0,0,0,0,0,0,0,0,0,0,0,0,0,-1.7034,-1.7035,-1.7061,-1.7061,-1.7061,-1.7045,-1.7044,-1.7044,-1.6971,-1.6969,-1.6967,-1.6965,-1.6952,-1.6954,-1.6955,0,0,0,0,0,0,0,0,0,0,0,0,0,-1.7034,-1.7035,-1.7061,-1.7022,-1.7019,-1.7045,-1.7044,-1.7044,-1.6972,-1.6969,-1.6967,-1.6964,-1.6952,-1.6954,-1.6955,-1.7018,0,0,-1.6961,-1.6962,0,0,0,0,0,0,0,0,-1.7035,-1.7036,-1.7028,-1.7025,-1.7021,-1.7007,-1.703,-1.7036,-1.6973,-1.699,-1.6966,-1.6963,-1.6973,-1.6973,-1.6976,-1.7018,-1.7017,-1.6961,-1.6962,-1.6963,-1.6964,0,0,0,0,0,0,0,-1.7035,-1.7036,-1.7054,-1.7028,-1.7024,-1.7007,-1.7004,-1.7031,-1.6996,-1.6988,-1.6983,-1.6982,-1.6971,-1.6974,-1.6975,-1.7017,-1.6961,-1.6963,-1.6964,-1.6965,-1.7111,-1.7114,0,0,0,0,0,0,-1.7039,-1.7036,-1.7055,-1.7054,-1.7021,-1.701,-1.7007,-1.7014,-1.6996,-1.699,-1.6984,-1.6978,-1.6972,-1.6973,-1.6974,-1.7047,-1.6963,-1.6965,-1.6966,-1.7109,-1.7112,-1.7115,0,0,0,0,0,0,-1.7039,-1.7042,-1.7056,-1.7044,-1.7044,-1.7013,-1.7022,-1.7015,-1.7018,-1.6992,-1.6986,-1.6993,-1.697,-1.6972,-1.7008,-1.7045,-1.6966,-1.6968,-1.7105,-1.711,-1.7114,-1.7193,0,0,0,0,0,0,-1.7039,-1.7042,-1.7064,-1.7045,-1.7045,-1.7089,-1.7024,-1.7017,-1.7022,-1.7014,-1.7,-1.6995,-1.6968,-1.7006,-1.701,-1.7046,-1.6969,-1.7102,-1.7107,-1.7112,-1.7187,-1.7199,-1.721,0,0,0,0,0,-1.7038,-1.7088,-1.7066,-1.7069,-1.7072,-1.7091,-1.7091,-1.7058,-1.7025,-1.7048,-1.7031,-1.6995,-1.7041,-1.701,-1.7014,-1.7052,-1.7099,-1.7106,-1.7112,-1.7181,-1.7197,-1.721,0,0,0,0,0,0,-1.7114,-1.7085,-1.706,-1.7105,-1.7101,-1.7078,-1.7106,-1.7076,-1.7082,-1.7075,-1.7035,-1.7033,-1.7075,-1.7067,-1.7033,-1.7113,-1.7064,-1.7072,-1.7116,-1.713,-1.7141,-1.7142,-1.6971,0,0,0,0,0,-1.7135,-1.7152,-1.7126,-1.7168,-1.7167,-1.7138,-1.7144,-1.712,-1.7114,-1.7113,-1.7099,-1.7096,-1.711,-1.712,-1.7131,-1.7186,-1.7182,-1.7214,-1.7226,-1.7235,-1.7242,-1.7272,-1.7286,-1.7136,-1.7135,-1.7135,0,0,-1.7181,-1.7167,-1.718,-1.7183,-1.7177,-1.7196,-1.7136,-1.7159,-1.7173,-1.7116,-1.7149,-1.714,-1.7134,-1.7181,-1.72,-1.7175,-1.7283,-1.7243,-1.7251,-1.7253,-1.7279,-1.7294,-1.7306,-1.714,-1.7139,-1.7138,0,0,-1.7273,-1.7264,-1.7298,-1.7293,-1.7285,-1.7265,-1.7274,-1.7256,-1.7247,-1.728,-1.7238,-1.7256,-1.728,-1.7278,-1.728,-1.7374,-1.7342,-1.7379,-1.7439,-1.7469,-1.748,-1.7491,-1.7524,-1.7537,-1.7386,-1.7386,-1.7387,0,-1.733,-1.7356,-1.732,-1.7345,-1.7348,-1.7298,-1.7333,-1.7331,-1.7327,-1.7331,-1.7304,-1.7334,-1.7327,-1.7372,-1.7395,-1.7399,-1.7408,-1.738,-1.7481,-1.7491,-1.75,-1.7532,-1.7545,-1.7391,-1.739,-1.739,-1.739,0,-1.7427,-1.7446,-1.7475,-1.7472,-1.7479,-1.7509,-1.7479,-1.7491,-1.7466,-1.745,-1.7485,-1.7475,-1.7484,-1.7493,-1.747,-1.7536,-1.7521,-1.7488,-1.7438,-1.752,-1.7549,-1.7561,-1.7398,-1.7396,-1.7395,-1.7393,0,0,-1.7564,-1.7542,-1.7553,-1.7551,-1.7539,-1.7554,-1.7583,-1.7591,-1.7602,-1.7602,-1.7626,-1.7649,-1.7619,-1.7621,-1.7598,-1.7624,-1.77,-1.7588,-1.7587,-1.7609,-1.7773,-1.7797,-1.7811,-1.7679,-1.7681,-1.7682,-1.7773,0,-1.7652,-1.7698,-1.7668,-1.772,-1.7737,-1.7691,-1.7717,-1.7713,-1.7699,-1.7714,-1.7699,-1.7716,-1.7674,-1.7676,-1.77,-1.7685,-1.7732,-1.7678,-1.7701,-1.7703,-1.7703,-1.7827,-1.7852,-1.7938,-1.7784,-1.7786,-1.7788,0,-1.776,-1.7764,-1.7817,-1.7803,-1.7809,-1.7832,-1.7837,-1.7851,-1.7847,-1.7836,-1.784,-1.781,-1.784,-1.7792,-1.7833,-1.7797,-1.7805,-1.78,-1.7803,-1.7803,-1.7749,-1.783,-1.7964,-1.7977,-1.7805,-1.7804,-1.7802,0,-1.7854,-1.7873,-1.7908,-1.7908,-1.7892,-1.791,-1.7904,-1.7897,-1.7904,-1.791,-1.7914,-1.7924,-1.7929,-1.7938,-1.7913,-1.788,-1.7957,-1.7907,-1.7949,-1.795,-1.7966,-1.7966,-1.8104,-1.7973,-1.7973,-1.7973,-1.7973,0,-1.7955,-1.7989,-1.795,-1.7971,-1.8009,-1.7975,-1.8015,-1.8004,-1.7999,-1.8019,-1.798,-1.8,-1.7966,-1.7983,-1.7964,-1.8,-1.8003,-1.7996,-1.799,-1.7999,-1.8,-1.8002,-1.7996,-1.7976,-1.7975,-1.7975,-1.7974,0,-1.8066,-1.8041,-1.8076,-1.8058,-1.8055,-1.8084,-1.8069,-1.8089,-1.8073,-1.8099,-1.8103,-1.8079,-1.8097,-1.8073,-1.8089,-1.8076,-1.8127,-1.8113,-1.8128,-1.8123,-1.8167,-1.8163,-1.8311,-1.8329,-1.8188,-1.8189,-1.819,0,-1.8131,-1.8157,-1.8142,-1.8152,-1.8148,-1.8165,-1.8172,-1.814,-1.8149,-1.8148,-1.8168,-1.8183,-1.8192,-1.8224,-1.8209,-1.8221,-1.8207,-1.8258,-1.8209,-1.8217,-1.8208,-1.8206,-1.8209,-1.8268,-1.827,-1.8271,-1.8272,0,-1.825,-1.8236,-1.8247,-1.8254,-1.8263,-1.8268,-1.827,-1.828,-1.8248,-1.826,-1.8278,-1.8285,-1.8302,-1.8317,-1.8326,-1.8322,-1.8292,-1.8288,-1.8298,-1.8307,-1.8315,-1.8311,-1.8155,-1.8284,-1.8283,-1.8282,-1.8282,-1.8281,-1.834,-1.836,-1.8353,-1.8367,-1.8365,-1.8368,-1.8386,-1.8373,-1.8386,-1.8396,-1.8377,-1.84,-1.8397,-1.8405,-1.8405,-1.8424,-1.8402,-1.8417,-1.842,-1.8424,-1.8431,-1.8313,-1.8425,-1.8425,-1.8425,-1.8424,-1.8424,0,-1.8456,-1.8449,-1.8462,-1.8466,-1.8477,-1.8447,-1.8448,-1.846,-1.848,-1.8479,-1.849,-1.8511,-1.8526,-1.8513,-1.8526,-1.8544,-1.8531,-1.8548,-1.8546,-1.8546,-1.845,-1.8439,-1.8559,-1.8559,-1.8559,-1.8559,-1.8559,-1.8558,-1.8518,-1.8551,-1.8538,-1.8571,-1.8564,-1.8585,-1.8588,-1.8591,-1.859,-1.8615,-1.8627,-1.8618,-1.8613,-1.8626,-1.8639,-1.8635,-1.8642,-1.8664,-1.8656,-1.8566,-1.8553,-1.854,-1.853,-1.8666,-1.8666,-1.875,-1.8751,-1.8751]},{"header":{"parameterUnit":"m.s-1","parameterCategory":1,"la1":30.2991,"la2":30.254,"lo1":-89.0895,"lo2":-89.0444,"dy":0.0017,"dx":0.0017,"nx":28,"ny":28,"refTime":"2023-10-28T09:00:00:Z","depth":0,"parameterNumber":3,"parameterNumberName":"V-component_of_WINDS"},"data":[0,0,0,0,0,0,0,0,0,0,0,0,0,0,0,0,0,0,0,0,0,0,0,0,0,0,0,0,0,0,0,0,0,0,0,0,0,0,0,0,0,0,0,0,0,0,0,0,0,0,0,0,0,0,0,0,0,0,1.5597,1.5598,0,1.5695,1.5696,1.5697,1.577,1.577,1.5771,1.5771,1.5866,1.5868,1.587,0,0,0,0,0,0,0,0,0,0,0,0,0,1.5471,1.5473,1.5597,1.5599,1.56,1.5695,1.5696,1.5697,1.5769,1.577,1.5771,1.5772,1.5865,1.5868,1.587,0,0,0,0,0,0,0,0,0,0,0,0,0,1.5543,1.5473,1.5597,1.5647,1.5653,1.5694,1.5696,1.5698,1.5769,1.577,1.5771,1.5772,1.5865,1.5867,1.587,1.5868,0,0,1.5879,1.588,0,0,0,0,0,0,0,0,1.5538,1.5547,1.5639,1.5644,1.565,1.5721,1.5686,1.5755,1.5769,1.5725,1.5771,1.5773,1.5817,1.5824,1.584,1.5873,1.5877,1.5879,1.5881,1.5882,1.5883,0,0,0,0,0,0,0,1.5533,1.5543,1.5636,1.564,1.5647,1.5664,1.5675,1.5699,1.5764,1.5729,1.5734,1.5745,1.582,1.5837,1.5842,1.5878,1.5879,1.5882,1.5884,1.5885,1.5917,1.5916,0,0,0,0,0,0,1.5521,1.5539,1.5633,1.5639,1.5596,1.5666,1.5678,1.5697,1.5764,1.5775,1.5744,1.5748,1.5831,1.5839,1.5846,1.585,1.5882,1.5885,1.5887,1.5918,1.5917,1.5916,0,0,0,0,0,0,1.5518,1.5529,1.5629,1.559,1.5604,1.5667,1.5688,1.5699,1.5715,1.5776,1.5787,1.575,1.5832,1.5842,1.5863,1.5854,1.5886,1.5889,1.5919,1.5917,1.5916,1.5855,0,0,0,0,0,0,1.5514,1.5527,1.5528,1.559,1.5606,1.5645,1.5687,1.57,1.5721,1.5727,1.5784,1.5794,1.5834,1.5858,1.5866,1.5858,1.5891,1.592,1.5918,1.5916,1.5858,1.5852,1.5847,0,0,0,0,0,1.5509,1.5505,1.5527,1.5538,1.5608,1.5644,1.5653,1.5701,1.572,1.572,1.5759,1.5792,1.5854,1.586,1.5869,1.5862,1.592,1.5918,1.5917,1.5861,1.5853,1.5847,0,0,0,0,0,0,1.5438,1.5514,1.5539,1.5555,1.5593,1.5656,1.5659,1.5691,1.5723,1.5727,1.5783,1.5795,1.5811,1.5838,1.5844,1.5865,1.5891,1.5891,1.5846,1.5839,1.5833,1.5826,1.5893,0,0,0,0,0,1.5424,1.5448,1.5513,1.5521,1.5539,1.5595,1.5613,1.5646,1.5687,1.5703,1.5743,1.578,1.5808,1.5825,1.5854,1.5863,1.5877,1.5863,1.5857,1.5852,1.5851,1.5859,1.5854,1.5909,1.5909,1.5909,0,0,1.5395,1.544,1.5451,1.5508,1.5541,1.5564,1.5608,1.563,1.5648,1.5705,1.5729,1.576,1.5805,1.5821,1.5829,1.5844,1.5839,1.5849,1.5845,1.5847,1.5857,1.5852,1.5847,1.5908,1.5908,1.5908,0,0,1.5355,1.5391,1.5403,1.5436,1.5487,1.5525,1.5528,1.5587,1.5611,1.5635,1.568,1.5701,1.5747,1.5779,1.58,1.5775,1.5806,1.5782,1.5752,1.5759,1.5755,1.5751,1.5743,1.574,1.5781,1.5781,1.5781,0,1.5313,1.5351,1.5404,1.5425,1.5449,1.5504,1.5517,1.5545,1.5602,1.5616,1.5633,1.5694,1.5728,1.5753,1.5747,1.5762,1.5767,1.5776,1.5752,1.5749,1.5746,1.5739,1.5736,1.5778,1.5778,1.5779,1.5779,0,1.5297,1.5323,1.5326,1.5382,1.5406,1.5422,1.5477,1.5495,1.5527,1.5563,1.5588,1.5631,1.5671,1.5679,1.5709,1.5709,1.5717,1.5741,1.5769,1.5737,1.5731,1.5729,1.5773,1.5775,1.5775,1.5776,0,0,1.5213,1.5301,1.5301,1.5328,1.5389,1.5409,1.5428,1.5469,1.5484,1.5521,1.5538,1.5578,1.5602,1.5627,1.5661,1.5668,1.5647,1.5693,1.5695,1.5683,1.565,1.5631,1.5627,1.5669,1.5668,1.5668,1.5647,0,1.5183,1.5222,1.5271,1.5293,1.5318,1.5372,1.5389,1.5428,1.5463,1.5488,1.5526,1.5554,1.5583,1.5599,1.5608,1.5647,1.5641,1.565,1.5685,1.5685,1.5672,1.5624,1.5604,1.5582,1.5645,1.5644,1.5644,0,1.5153,1.5191,1.5215,1.5277,1.5289,1.5303,1.5346,1.537,1.5415,1.544,1.5469,1.5507,1.553,1.5555,1.5586,1.5591,1.5609,1.5631,1.5631,1.5636,1.5663,1.5629,1.5576,1.5572,1.5641,1.5641,1.5641,0,1.5091,1.5147,1.517,1.5191,1.5263,1.5272,1.5302,1.5349,1.5371,1.5408,1.5423,1.5461,1.5481,1.551,1.5557,1.5571,1.5584,1.5613,1.5605,1.5604,1.5605,1.5604,1.5555,1.5615,1.5615,1.5615,1.5616,0,1.5053,1.5066,1.5144,1.5157,1.5174,1.5231,1.5245,1.528,1.5321,1.5343,1.5391,1.541,1.5471,1.5497,1.5534,1.5556,1.5564,1.5585,1.5594,1.5581,1.5578,1.5593,1.5596,1.5615,1.5615,1.5615,1.5615,0,1.4985,1.5038,1.5067,1.5133,1.5151,1.516,1.5217,1.5232,1.5271,1.5297,1.5306,1.5366,1.5399,1.545,1.5497,1.5522,1.5538,1.5553,1.5523,1.5529,1.5519,1.5519,1.5477,1.5475,1.5536,1.5535,1.5534,0,1.4958,1.497,1.5039,1.5058,1.5087,1.5116,1.514,1.5196,1.5219,1.5273,1.5282,1.5319,1.5352,1.5403,1.545,1.5487,1.5504,1.5487,1.5509,1.5496,1.5505,1.5504,1.5506,1.5481,1.548,1.5479,1.5479,0,1.4903,1.493,1.4963,1.5006,1.5034,1.5069,1.5108,1.512,1.5184,1.5207,1.5243,1.5269,1.5319,1.5356,1.54,1.543,1.5465,1.5471,1.5472,1.5458,1.544,1.5451,1.5509,1.5472,1.5472,1.5473,1.5473,1.5474,1.4856,1.487,1.4921,1.4957,1.4993,1.5028,1.5046,1.5089,1.512,1.5167,1.5198,1.5232,1.5279,1.5342,1.537,1.5398,1.5412,1.5413,1.5413,1.5412,1.5408,1.5436,1.5406,1.5406,1.5406,1.5406,1.5406,0,1.4805,1.4842,1.4874,1.4928,1.4956,1.4989,1.5033,1.5055,1.5085,1.5126,1.5159,1.5201,1.5237,1.5288,1.5328,1.534,1.5358,1.5349,1.5349,1.5356,1.5391,1.5388,1.5335,1.5335,1.5335,1.5335,1.5335,1.5335,1.4782,1.4808,1.484,1.4885,1.4921,1.4957,1.4979,1.5012,1.5046,1.5091,1.5123,1.5157,1.5202,1.5246,1.5281,1.5295,1.5308,1.5295,1.5313,1.5346,1.5353,1.5359,1.5356,1.5297,1.5297,1.5276,1.5275,1.5275]}]]